Location: Unspecified
(0.0000°N, 0.0000°E)
Time: 13:32:11
(UTC+00:00)

deb Blok Kosmos - Pass Details

Date: 17 November 2025
Orbit: 1344 x 1638 km, 56.1° (Epoch: 13 December)

Event Time Altitude Azimuth Distance (km) Brightness Sun altitude
Rises 20:51:16 0° 190° (S) 4,859 ? -43.3°
Reaches altitude 10° 20:54:57 10° 180° (S) 3,875 ? -44.1°
Enters shadow 20:58:20 21° 164° (SSE) 3,109 ? -44.8°
